BCS122 FOOL-DNAA

Flight info

Callsign BCS122
Flight time 1h 27m
Altitude 35000
Route BTA3S BTA UG857 DLA/N0453F360 DCT AKLIS UW225 LUKRO LUKRO1N
Aircraft A320/M-SDE3FGHIRWY/LB1

Departure

Time 2026-05-07 04:36
Airport Libreville Leon M'ba International Airport (FOOL)

Arrival

Time 2026-05-07 06:03
Airport Nnamdi Azikiwe International Airport (DNAA)
Time Latitude Longitude Altitude Speed Heading
2026-05-07 04:14 0.45820 9.41032 39 ft 0 kts 243°
2026-05-07 04:28 0.45820 9.41033 39 ft 0 kts 243°
2026-05-07 04:29 0.45824 9.41040 38 ft 1 kts 245°
2026-05-07 04:29 0.45828 9.41050 37 ft 2 kts 258°
2026-05-07 04:29 0.45830 9.41066 36 ft 3 kts 278°
2026-05-07 04:29 0.45825 9.41085 37 ft 3 kts 302°
2026-05-07 04:30 0.45812 9.41099 36 ft 3 kts 326°
2026-05-07 04:30 0.45810 9.41101 37 ft 0 kts 329°
2026-05-07 04:31 0.45856 9.41081 37 ft 9 kts 336°
2026-05-07 04:32 0.45929 9.41045 37 ft 15 kts 329°
2026-05-07 04:32 0.46019 9.40979 39 ft 16 kts 332°
2026-05-07 04:32 0.46121 9.40932 39 ft 17 kts 335°
2026-05-07 04:32 0.46226 9.40881 39 ft 14 kts 336°
2026-05-07 04:33 0.46279 9.40894 38 ft 7 kts 68°
2026-05-07 04:33 0.46298 9.40933 39 ft 6 kts 62°
2026-05-07 04:33 0.46314 9.40964 37 ft 4 kts 63°
2026-05-07 04:33 0.46325 9.40990 34 ft 6 kts 82°
2026-05-07 04:34 0.46289 9.41025 38 ft 0 kts 153°
2026-05-07 04:35 0.46275 9.41032 37 ft 14 kts 153°
2026-05-07 04:35 0.45906 9.41210 37 ft 102 kts 154°
2026-05-07 04:35 0.45037 9.41626 45 ft 171 kts 154°
2026-05-07 04:36 0.43980 9.42227 784 ft 176 kts 142°
2026-05-07 04:36 0.43127 9.43106 1740 ft 177 kts 128°
2026-05-07 04:36 0.42500 9.44218 2378 ft 193 kts 112°
2026-05-07 04:36 0.42198 9.45600 2637 ft 217 kts 94°
2026-05-07 04:37 0.42384 9.47181 2911 ft 244 kts 73°
2026-05-07 04:37 0.43108 9.48799 3325 ft 265 kts 64°
2026-05-07 04:37 0.43929 9.50470 4053 ft 271 kts 65°
2026-05-07 04:37 0.44758 9.52173 4877 ft 273 kts 65°
2026-05-07 04:38 0.45586 9.53886 5698 ft 275 kts 65°
2026-05-07 04:38 0.46423 9.55625 6503 ft 278 kts 65°
2026-05-07 04:38 0.47260 9.57333 7274 ft 279 kts 61°
2026-05-07 04:38 0.48495 9.58857 8073 ft 281 kts 41°
2026-05-07 04:39 0.50185 9.59846 8863 ft 285 kts 21°
2026-05-07 04:39 0.52141 9.60256 9650 ft 289 kts 11°
2026-05-07 04:39 0.54149 9.60549 10258 ft 297 kts 12°
2026-05-07 04:39 0.56265 9.60863 10414 ft 320 kts 12°
2026-05-07 04:40 0.58496 9.61196 10713 ft 335 kts 11°
2026-05-07 04:40 0.60821 9.61539 11271 ft 340 kts 11°
2026-05-07 04:40 0.63176 9.61885 11897 ft 344 kts 11°
2026-05-07 04:40 0.65561 9.62239 12530 ft 347 kts 12°
2026-05-07 04:41 0.67956 9.62596 13152 ft 350 kts 12°
2026-05-07 04:41 0.70378 9.62959 13771 ft 354 kts 12°
2026-05-07 04:41 0.72816 9.63325 14283 ft 357 kts 12°
2026-05-07 04:41 0.75294 9.63695 14816 ft 360 kts 11°
2026-05-07 04:42 0.76977 9.63946 15162 ft 363 kts 11°
2026-05-07 04:42 0.79483 9.64320 15667 ft 366 kts 11°
2026-05-07 04:42 0.81981 9.64695 16164 ft 370 kts 11°
2026-05-07 04:42 0.84533 9.65078 16663 ft 373 kts 11°
2026-05-07 04:43 0.87116 9.65464 17155 ft 377 kts 11°
2026-05-07 04:43 0.89724 9.65852 17630 ft 380 kts 11°
2026-05-07 04:43 0.92351 9.66243 18116 ft 384 kts 10°
2026-05-07 04:43 0.95004 9.66639 18537 ft 387 kts 10°
2026-05-07 04:44 0.97680 9.67038 18953 ft 390 kts 10°
2026-05-07 04:44 1.00375 9.67441 19396 ft 393 kts 10°
2026-05-07 04:44 1.03087 9.67845 19825 ft 395 kts 10°
2026-05-07 04:44 1.05818 9.68253 20267 ft 398 kts 10°
2026-05-07 04:45 1.08566 9.68665 20696 ft 401 kts 10°
2026-05-07 04:45 1.11333 9.69081 21119 ft 403 kts 10°
2026-05-07 04:45 1.14117 9.69499 21553 ft 406 kts 10°
2026-05-07 04:45 1.16924 9.69919 21983 ft 409 kts 10°
2026-05-07 04:46 1.19748 9.70341 22404 ft 411 kts
2026-05-07 04:46 1.22589 9.70765 22815 ft 414 kts
2026-05-07 04:46 1.25449 9.71194 23225 ft 417 kts
2026-05-07 04:46 1.28325 9.71626 23593 ft 419 kts
2026-05-07 04:47 1.31217 9.72060 23923 ft 421 kts
2026-05-07 04:47 1.34123 9.72497 24255 ft 423 kts
2026-05-07 04:47 1.37046 9.72935 24586 ft 425 kts
2026-05-07 04:47 1.39975 9.73372 24903 ft 427 kts
2026-05-07 04:48 1.42921 9.73810 25221 ft 429 kts
2026-05-07 04:48 1.45877 9.74250 25535 ft 430 kts
2026-05-07 04:48 1.48846 9.74694 25843 ft 432 kts
2026-05-07 04:48 1.51825 9.75140 26142 ft 434 kts
2026-05-07 04:49 1.54817 9.75591 26424 ft 435 kts
2026-05-07 04:49 1.57822 9.76042 26721 ft 437 kts
2026-05-07 04:49 1.60833 9.76492 26998 ft 439 kts
2026-05-07 04:49 1.63822 9.76942 27274 ft 440 kts
2026-05-07 04:50 1.66855 9.77399 27551 ft 442 kts 10°
2026-05-07 04:50 1.69900 9.77859 27822 ft 444 kts
2026-05-07 04:50 1.72960 9.78316 28089 ft 445 kts
2026-05-07 04:50 1.76036 9.78772 28351 ft 447 kts
2026-05-07 04:51 1.79117 9.79230 28602 ft 449 kts
2026-05-07 04:51 1.82216 9.79694 28856 ft 450 kts
2026-05-07 04:51 1.85320 9.80161 29104 ft 452 kts
2026-05-07 04:51 1.88436 9.80626 29340 ft 454 kts
2026-05-07 04:52 1.91592 9.80850 29572 ft 456 kts
2026-05-07 04:52 1.94770 9.80745 29804 ft 458 kts 359°
2026-05-07 04:52 1.97961 9.80637 30015 ft 459 kts 359°
2026-05-07 04:52 2.01165 9.80536 30197 ft 461 kts 359°
2026-05-07 04:53 2.04373 9.80438 30381 ft 462 kts 359°
2026-05-07 04:53 2.07594 9.80340 30561 ft 463 kts 359°
2026-05-07 04:53 2.10821 9.80241 30746 ft 464 kts 359°
2026-05-07 04:53 2.14053 9.80143 30928 ft 465 kts 359°
2026-05-07 04:54 2.17289 9.80046 31186 ft 464 kts 359°
2026-05-07 04:54 2.20508 9.79949 31435 ft 463 kts 359°
2026-05-07 04:54 2.23727 9.79849 31688 ft 462 kts 359°
2026-05-07 04:54 2.26939 9.79746 31940 ft 462 kts 359°
2026-05-07 04:55 2.30147 9.79641 32189 ft 461 kts 359°
2026-05-07 04:55 2.33348 9.79539 32443 ft 460 kts 359°
2026-05-07 04:55 2.36550 9.79439 32698 ft 459 kts 359°
2026-05-07 04:55 2.39742 9.79338 32957 ft 459 kts 359°
2026-05-07 04:56 2.42934 9.79239 33213 ft 458 kts 359°
2026-05-07 04:56 2.46119 9.79140 33479 ft 457 kts 359°
2026-05-07 04:56 2.49298 9.79043 33747 ft 456 kts 359°
2026-05-07 04:56 2.52470 9.78945 33993 ft 456 kts 359°
2026-05-07 04:57 2.55637 9.78847 34213 ft 455 kts 359°
2026-05-07 04:57 2.58802 9.78748 34429 ft 454 kts 359°
2026-05-07 04:57 2.61960 9.78648 34636 ft 454 kts 359°
2026-05-07 04:57 2.65115 9.78549 34815 ft 454 kts 359°
2026-05-07 04:58 2.71347 9.78350 34882 ft 448 kts 359°
2026-05-07 04:58 2.77608 9.78157 34880 ft 447 kts 359°
2026-05-07 04:59 2.83818 9.77960 34880 ft 446 kts 359°
2026-05-07 04:59 2.90027 9.77764 34880 ft 446 kts 359°
2026-05-07 05:00 2.96229 9.77572 34880 ft 446 kts 359°
2026-05-07 05:00 3.02435 9.77377 34874 ft 446 kts 359°
2026-05-07 05:01 3.08596 9.77182 34876 ft 446 kts 359°
2026-05-07 05:01 3.14802 9.76991 34878 ft 446 kts 359°
2026-05-07 05:02 3.21005 9.76801 34877 ft 446 kts 359°
2026-05-07 05:02 3.27208 9.76601 34873 ft 446 kts 359°
2026-05-07 05:03 3.33412 9.76405 34873 ft 446 kts 359°
2026-05-07 05:03 3.39615 9.76213 34875 ft 446 kts 359°
2026-05-07 05:04 3.45822 9.76020 34869 ft 446 kts 359°
2026-05-07 05:04 3.52021 9.75829 34874 ft 446 kts 359°
2026-05-07 05:05 3.58232 9.75639 34875 ft 446 kts 359°
2026-05-07 05:05 3.64431 9.75440 34871 ft 445 kts 359°
2026-05-07 05:06 3.70624 9.75239 34874 ft 445 kts 359°
2026-05-07 05:06 3.76818 9.75047 34908 ft 445 kts
2026-05-07 05:07 3.83002 9.74859 34907 ft 444 kts
2026-05-07 05:07 3.89172 9.74663 34907 ft 443 kts
2026-05-07 05:08 3.95298 9.74471 34904 ft 443 kts
2026-05-07 05:08 4.01448 9.73985 34900 ft 445 kts 352°
2026-05-07 05:09 4.07546 9.72899 34899 ft 445 kts 352°
2026-05-07 05:09 4.13654 9.71802 34896 ft 446 kts 352°
2026-05-07 05:10 4.19759 9.70711 34892 ft 446 kts 352°
2026-05-07 05:10 4.25864 9.69625 34891 ft 445 kts 352°
2026-05-07 05:11 4.31963 9.68540 34883 ft 445 kts 352°
2026-05-07 05:11 4.38055 9.67456 34885 ft 445 kts 352°
2026-05-07 05:12 4.44162 9.66362 34887 ft 445 kts 352°
2026-05-07 05:12 4.50260 9.65276 34897 ft 445 kts 352°
2026-05-07 05:13 4.56357 9.64189 34905 ft 445 kts 352°
2026-05-07 05:13 4.62453 9.63094 34912 ft 445 kts 352°
2026-05-07 05:14 4.68546 9.62003 34918 ft 444 kts 352°
2026-05-07 05:14 4.74590 9.60930 34921 ft 444 kts 352°
2026-05-07 05:15 4.80716 9.59845 34924 ft 444 kts 352°
2026-05-07 05:15 4.86759 9.58768 34928 ft 444 kts 352°
2026-05-07 05:16 4.92846 9.57678 34927 ft 444 kts 352°
2026-05-07 05:16 4.98935 9.56587 34931 ft 444 kts 352°
2026-05-07 05:17 5.05024 9.55497 34931 ft 445 kts 352°
2026-05-07 05:17 5.11114 9.54408 34931 ft 444 kts 352°
2026-05-07 05:18 5.17204 9.53317 34929 ft 444 kts 352°
2026-05-07 05:18 5.23294 9.52228 34926 ft 444 kts 352°
2026-05-07 05:19 5.29385 9.51142 34922 ft 444 kts 352°
2026-05-07 05:19 5.35468 9.50056 34920 ft 444 kts 352°
2026-05-07 05:20 5.41564 9.48966 34919 ft 444 kts 352°
2026-05-07 05:20 5.47653 9.47878 34913 ft 444 kts 352°
2026-05-07 05:21 5.56786 9.46240 34913 ft 444 kts 352°
2026-05-07 05:22 5.62878 9.45148 34909 ft 445 kts 352°
2026-05-07 05:22 5.68971 9.44063 34910 ft 445 kts 352°
2026-05-07 05:23 5.75067 9.42974 34909 ft 445 kts 352°
2026-05-07 05:23 5.81163 9.41884 34910 ft 445 kts 352°
2026-05-07 05:24 5.87260 9.40788 34916 ft 445 kts 352°
2026-05-07 05:24 5.93366 9.39685 34921 ft 445 kts 352°
2026-05-07 05:25 5.99459 9.38589 34923 ft 445 kts 352°
2026-05-07 05:25 6.04531 9.37681 34926 ft 445 kts 352°
2026-05-07 05:26 6.10629 9.36587 34932 ft 445 kts 352°
2026-05-07 05:26 6.16734 9.35498 34933 ft 445 kts 352°
2026-05-07 05:27 6.22833 9.34420 34935 ft 445 kts 352°
2026-05-07 05:27 6.28887 9.33337 34934 ft 445 kts 351°
2026-05-07 05:28 6.34980 9.32238 34935 ft 445 kts 351°
2026-05-07 05:28 6.41071 9.31144 34936 ft 445 kts 351°
2026-05-07 05:29 6.47163 9.30051 34935 ft 445 kts 351°
2026-05-07 05:29 6.53255 9.28954 34934 ft 445 kts 351°
2026-05-07 05:30 6.59344 9.27856 34929 ft 445 kts 351°
2026-05-07 05:30 6.65429 9.26767 34926 ft 445 kts 351°
2026-05-07 05:31 6.71520 9.25671 34926 ft 445 kts 351°
2026-05-07 05:31 6.77618 9.24579 34926 ft 444 kts 351°
2026-05-07 05:32 6.83707 9.23485 34923 ft 444 kts 351°
2026-05-07 05:32 6.89797 9.22382 34923 ft 445 kts 351°
2026-05-07 05:33 6.95886 9.21286 34921 ft 444 kts 351°
2026-05-07 05:33 7.01936 9.20201 34925 ft 444 kts 351°
2026-05-07 05:34 7.07839 9.18396 34924 ft 446 kts 333°
2026-05-07 05:34 7.12771 9.14624 34918 ft 450 kts 314°
2026-05-07 05:35 7.16974 9.09956 34913 ft 450 kts 314°
2026-05-07 05:35 7.21195 9.05292 34917 ft 450 kts 314°
2026-05-07 05:36 7.25436 9.00644 34915 ft 450 kts 317°
2026-05-07 05:36 7.30129 8.96462 34920 ft 449 kts 320°
2026-05-07 05:37 7.34839 8.92337 34924 ft 450 kts 320°
2026-05-07 05:37 7.39562 8.88205 34922 ft 450 kts 320°
2026-05-07 05:38 7.44285 8.84057 34924 ft 450 kts 320°
2026-05-07 05:38 7.48998 8.79916 34928 ft 450 kts 320°
2026-05-07 05:39 7.53723 8.75773 34929 ft 450 kts 320°
2026-05-07 05:39 7.58441 8.71638 34924 ft 450 kts 320°
2026-05-07 05:40 7.63156 8.67488 34924 ft 450 kts 320°
2026-05-07 05:40 7.67871 8.63337 34921 ft 450 kts 320°
2026-05-07 05:41 7.72572 8.59163 34919 ft 451 kts 318°
2026-05-07 05:41 7.76980 8.54722 34868 ft 452 kts 314°
2026-05-07 05:41 7.79129 8.52404 34632 ft 452 kts 314°
2026-05-07 05:42 7.81295 8.50044 34402 ft 452 kts 314°
2026-05-07 05:42 7.83434 8.47733 34054 ft 449 kts 314°
2026-05-07 05:42 7.85577 8.45450 33446 ft 448 kts 314°
2026-05-07 05:42 7.87699 8.43222 32905 ft 444 kts 315°
2026-05-07 05:43 7.89841 8.40992 32355 ft 441 kts 315°
2026-05-07 05:43 7.91972 8.38781 31814 ft 438 kts 316°
2026-05-07 05:43 7.94086 8.36593 31281 ft 435 kts 316°
2026-05-07 05:43 7.96193 8.34409 30751 ft 433 kts 316°
2026-05-07 05:44 7.98288 8.32227 30222 ft 431 kts 316°
2026-05-07 05:44 8.00366 8.30055 29651 ft 429 kts 316°
2026-05-07 05:44 8.02421 8.27901 29132 ft 425 kts 316°
2026-05-07 05:44 8.04467 8.25756 28632 ft 421 kts 316°
2026-05-07 05:45 8.06486 8.23639 28134 ft 417 kts 316°
2026-05-07 05:45 8.08489 8.21537 27664 ft 413 kts 316°
2026-05-07 05:45 8.10474 8.19455 27181 ft 410 kts 316°
2026-05-07 05:45 8.12446 8.17390 26735 ft 407 kts 316°
2026-05-07 05:46 8.14399 8.15345 26286 ft 405 kts 316°
2026-05-07 05:46 8.16349 8.13308 25829 ft 402 kts 316°
2026-05-07 05:46 8.18293 8.11274 25367 ft 401 kts 316°
2026-05-07 05:46 8.20227 8.09251 24891 ft 399 kts 316°
2026-05-07 05:47 8.22107 8.07201 24426 ft 400 kts 310°
2026-05-07 05:47 8.23695 8.04898 23954 ft 400 kts 305°
2026-05-07 05:47 8.25222 8.02553 23457 ft 400 kts 304°
2026-05-07 05:47 8.26728 8.00238 22920 ft 399 kts 304°
2026-05-07 05:48 8.28250 7.97904 22431 ft 397 kts 304°
2026-05-07 05:48 8.29790 7.95542 21925 ft 395 kts 304°
2026-05-07 05:48 8.31273 7.93267 21456 ft 394 kts 304°
2026-05-07 05:48 8.32780 7.90955 20974 ft 393 kts 304°
2026-05-07 05:49 8.34275 7.88661 20490 ft 391 kts 304°
2026-05-07 05:49 8.35777 7.86360 20017 ft 390 kts 304°
2026-05-07 05:49 8.37265 7.84081 19531 ft 389 kts 304°
2026-05-07 05:49 8.38753 7.81799 19078 ft 389 kts 304°
2026-05-07 05:50 8.40237 7.79519 18602 ft 388 kts 303°
2026-05-07 05:50 8.41721 7.77242 18124 ft 388 kts 303°
2026-05-07 05:50 8.43199 7.74968 17618 ft 386 kts 304°
2026-05-07 05:50 8.44668 7.72706 17165 ft 384 kts 304°
2026-05-07 05:51 8.46129 7.70459 16721 ft 381 kts 304°
2026-05-07 05:51 8.47581 7.68230 16267 ft 375 kts 305°
2026-05-07 05:51 8.49008 7.66044 15833 ft 370 kts 306°
2026-05-07 05:51 8.50415 7.63885 15403 ft 366 kts 306°
2026-05-07 05:52 8.51805 7.61747 14977 ft 362 kts 306°
2026-05-07 05:52 8.53179 7.59634 14556 ft 358 kts 306°
2026-05-07 05:52 8.54540 7.57540 14141 ft 355 kts 307°
2026-05-07 05:52 8.55889 7.55465 13717 ft 352 kts 307°
2026-05-07 05:53 8.57227 7.53407 13271 ft 349 kts 307°
2026-05-07 05:53 8.58549 7.51373 12861 ft 344 kts 307°
2026-05-07 05:53 8.59853 7.49366 12444 ft 340 kts 307°
2026-05-07 05:53 8.61143 7.47381 12037 ft 335 kts 307°
2026-05-07 05:54 8.62398 7.45449 11626 ft 332 kts 307°
2026-05-07 05:54 8.63656 7.43507 11220 ft 328 kts 307°
2026-05-07 05:54 8.64900 7.41588 10807 ft 325 kts 307°
2026-05-07 05:54 8.66133 7.39691 10399 ft 322 kts 307°
2026-05-07 05:55 8.67355 7.37811 10006 ft 317 kts 307°
2026-05-07 05:55 8.68554 7.35967 9684 ft 310 kts 307°
2026-05-07 05:55 8.69723 7.34165 9314 ft 306 kts 307°
2026-05-07 05:55 8.70888 7.32371 8861 ft 303 kts 307°
2026-05-07 05:56 8.72046 7.30589 8355 ft 302 kts 306°
2026-05-07 05:56 8.73194 7.28823 7923 ft 298 kts 306°
2026-05-07 05:56 8.74322 7.27084 7463 ft 296 kts 305°
2026-05-07 05:56 8.75443 7.25354 7027 ft 292 kts 304°
2026-05-07 05:57 8.76547 7.23650 6513 ft 287 kts 304°
2026-05-07 05:57 8.77636 7.21972 5876 ft 284 kts 303°
2026-05-07 05:57 8.78709 7.20331 5488 ft 271 kts 303°
2026-05-07 05:57 8.79741 7.18823 5328 ft 250 kts 304°
2026-05-07 05:58 8.80718 7.17434 5215 ft 235 kts 304°
2026-05-07 05:58 8.81651 7.16117 5100 ft 226 kts 305°
2026-05-07 05:58 8.82791 7.15088 4989 ft 218 kts 336°
2026-05-07 05:58 8.84241 7.14916 4822 ft 217 kts 12°
2026-05-07 05:59 8.85583 7.15611 4483 ft 220 kts 35°
2026-05-07 05:59 8.86819 7.16494 4181 ft 212 kts 34°
2026-05-07 05:59 8.87995 7.17333 3854 ft 202 kts 34°
2026-05-07 05:59 8.89112 7.18129 3572 ft 190 kts 34°
2026-05-07 06:00 8.90149 7.18866 3333 ft 175 kts 33°
2026-05-07 06:00 8.91115 7.19552 3097 ft 166 kts 33°
2026-05-07 06:00 8.92051 7.20215 2869 ft 162 kts 33°
2026-05-07 06:00 8.92974 7.20866 2668 ft 161 kts 34°
2026-05-07 06:01 8.93887 7.21510 2448 ft 160 kts 34°
2026-05-07 06:01 8.94793 7.22150 2237 ft 158 kts 33°
2026-05-07 06:01 8.95690 7.22784 2037 ft 156 kts 35°
2026-05-07 06:01 8.96574 7.23406 1820 ft 155 kts 36°
2026-05-07 06:02 8.97440 7.24030 1619 ft 152 kts 36°
2026-05-07 06:02 8.98299 7.24643 1398 ft 151 kts 35°
2026-05-07 06:02 8.99147 7.25243 1175 ft 150 kts 35°
2026-05-07 06:02 8.99976 7.25825 1103 ft 130 kts 35°
2026-05-07 06:03 9.00469 7.26171 1112 ft 47 kts 34°
2026-05-07 06:03 9.00675 7.26315 1110 ft 20 kts 36°
2026-05-07 06:03 9.00664 7.26430 1106 ft 19 kts 124°
2026-05-07 06:03 9.00647 7.26455 1107 ft 0 kts 125°
2026-05-07 06:04 9.00646 7.26457 1108 ft 2 kts 125°
2026-05-07 06:05 9.00611 7.26507 1109 ft 16 kts 126°
2026-05-07 06:05 9.00529 7.26597 1113 ft 19 kts 142°
2026-05-07 06:05 9.00412 7.26669 1111 ft 20 kts 149°
2026-05-07 06:05 9.00334 7.26748 1111 ft 14 kts 88°
2026-05-07 06:06 9.00368 7.26831 1107 ft 11 kts 79°
2026-05-07 06:06 9.00332 7.26886 1114 ft 9 kts 148°
2026-05-07 06:06 9.00279 7.26917 1107 ft 8 kts 150°
2026-05-07 06:06 9.00226 7.26936 1108 ft 9 kts 167°
2026-05-07 06:07 9.00183 7.26973 1109 ft 7 kts 92°
2026-05-07 06:07 9.00212 7.26982 1113 ft 4 kts 332°
2026-05-07 06:07 9.00230 7.26968 1106 ft 3 kts 325°
2026-05-07 06:07 9.00234 7.26966 1105 ft 0 kts 326°
2026-05-07 06:21 9.00233 7.26966 1105 ft 0 kts 326°
2026-05-07 06:48 9.00233 7.26967 1113 ft 0 kts 326°